Regional Weather Roundup
Issued by NWS Northern Indiana

Home | Current Version | Previous Version | Graphics & Text | Print | Product List | Glossary On
Versions: 1 2 3 4 5 6 7 8 9 10 11 12 13 14 15 16 17 18 19 20 21 22 23 24 25 26 27 28 29 30 31 32 33 34 35 36 37 38 39 40 41 42 43 44 45 46 47 48 49 50
000
ASUS43 KIWX 300000
RWRIWX

KIWX WEATHER ROUNDUP
NATIONAL WEATHER SERVICE NORTHERN INDIANA
700 PM EST THU JAN 29 2015

NOTE: "FAIR" INDICATES FEW OR NO CLOUDS BELOW 12,000 FEET WITH NO
SIGNIFICANT WEATHER AND/OR OBSTRUCTIONS TO VISIBILITY.

* THESE STATIONS ARE NOT UNDER NWS QUALITY CONTROL. THEY ALSO MAY NOT
  REPORT WEATHER SUCH AS PRECIPITATION OR FOG.

INZ001>027-300100-
NORTHERN INDIANA

CITY           SKY/WX    TMP DP  RH WIND       PRES   REMARKS
GARY*          CLOUDY    37  23  56 NW10G25   30.15R
SOUTH BEND     CLOUDY    34  27  75 NW14      30.08R WCI  25
6HR MIN TEMP:  33; 6HR MAX TEMP:  35; 6HR PCP: TRACE;

ELKHART*       CLOUDY    32  27  80 NW8       30.07R WCI  25
GOSHEN         CLOUDY    33  29  85 NW16G25   30.05R WCI  23
6HR MIN TEMP:  33; 6HR MAX TEMP:  35; 6HR PCP: TRACE;

ANGOLA*        CLOUDY    30  28  93 NW12      29.99R WCI  21
FORT WAYNE     DRIZZLE   33  30  88 NW9       30.05R FOG     WCI  25
6HR MIN TEMP:  32; 6HR MAX TEMP:  38; 6HR PCP:  0.01;


$$
INZ028>050-300100-
CENTRAL INDIANA

CITY           SKY/WX    TMP DP  RH WIND       PRES   REMARKS
LAFAYETTE      CLOUDY    33  29  85 NW8       30.15R WCI  26
6HR MIN TEMP:  32; 6HR MAX TEMP:  35;

KOKOMO*        CLOUDY    32  28  86 NW16      30.10R WCI  21
6HR MIN TEMP:  32; 6HR MAX TEMP:  36;

MUNCIE*        CLOUDY    32  29  88 NW17G26   30.07R FOG     WCI  21
6HR MIN TEMP:  32; 6HR MAX TEMP:  37;

INDIANAPOLIS   FLURRIES  31  27  85 NW20      30.13R WCI  19
6HR MIN TEMP:  31; 6HR MAX TEMP:  33; 6HR PCP: TRACE;


$$
MIZ043>046-050>051-056>058-064>065-071>073-077>080-300100-
SOUTHWEST LOWER MICHIGAN

CITY           SKY/WX    TMP DP  RH WIND       PRES   REMARKS
BATTLE CREEK   CLOUDY    33  26  75 NW15      30.01R WCI  23
6HR MIN TEMP:  33; 6HR MAX TEMP:  34; 6HR PCP: TRACE;

BENTON HARBOR  CLOUDY    34  27  75 NW9G20    30.08R WCI  27
6HR MIN TEMP:  32; 6HR MAX TEMP:  34; 6HR PCP: TRACE;

COLDWATER*     CLOUDY    32  28  86 NW12      30.00R WCI  23
6HR MIN TEMP:  32; 6HR MAX TEMP:  34;

HILLSDALE*     CLOUDY    31  30  94 NW15      29.96R FOG     WCI  21
HOLLAND        CLOUDY    34  26  72 N13G22    30.06R WCI  25
6HR MIN TEMP:  34; 6HR MAX TEMP:  35; 6HR PCP: TRACE;

GRAND RAPIDS   FLURRIES  32  24  72 NW17G33   30.02R WCI  21
6HR MIN TEMP:  32; 6HR MAX TEMP:  33; 6HR PCP: TRACE;

KALAMAZOO      CLOUDY    33  25  72 NW18G28   30.03R WCI  22
6HR MIN TEMP:  33; 6HR MAX TEMP:  34; 6HR PCP: TRACE;

STURGIS*       CLOUDY    32  27  80 NW17G25   30.02R WCI  21
THREE RIVERS*  CLOUDY    33  26  77 NW13      30.04R WCI  24

$$
OHZ001>008-015>018-024>025-300100-
NORTHWEST OHIO

CITY           SKY/WX    TMP DP  RH WIND       PRES   REMARKS
DEFIANCE       CLOUDY    35  28  75 NW14      30.00R WCI  26
6HR MIN TEMP:  34; 6HR MAX TEMP:  38; 6HR PCP:  0.01;

FINDLAY        CLOUDY    34  30  85 NW14      29.95R FOG     WCI  25
6HR MIN TEMP:  34; 6HR MAX TEMP:  41; 6HR PCP:  0.01;

TOLEDO EXPRESS CLOUDY    33  28  81 NW10      29.95R WCI  25
6HR MIN TEMP:  32; 6HR MAX TEMP:  36; 6HR PCP:  0.13;

TOLEDO METCALF CLOUDY    33  29  85 NW13      29.96R WCI  24
6HR MIN TEMP:  33; 6HR MAX TEMP:  36; 6HR PCP:  0.16;

LIMA           CLOUDY    34  30  85 NW18G31   29.98R FOG     WCI  23
6HR MIN TEMP:  34; 6HR MAX TEMP:  42; 6HR PCP: TRACE;


$$
AND FOR LAKE MICHIGAN COASTAL AND OPEN LAKE BUOY OBSERVATIONS

STATION/POSITION TEMP    WIND        PRES    VSBY  WAVE
                 AIR SEA DIR/SP/G                  HT/PER
                 (F)     (DEG/KT/KT) (MB)    (MI)  (FT/S)
CALUMET HARBOR    35     320/ 12/ 20   N/A
MICHIGAN CITY     34     290/ 20/ 24   N/A
SAINT JOSEPH      34     320/ 14/ 23 1018.6R

$$
&&



USA.gov is the U.S. government's official web portal to all federal, state and local government web resources and services.